#timestamp,LO_Frequency,Hit,StdDev 
1540425615.1,286047001.2,N
1540425616.0,286047001.2,N
1540425635.8,286046998.2,N
1540425655.7,286046998.2,N
1540425675.5,286046999.6,N
1540425695.3,286046997.5,N
1540425715.2,286046997.4,N
1540425735.0,286046997.3,N
1540425735.9,286046997.3,N
1540425755.7,286046996.8,N
1540425775.6,286046995.5,Y
1540425795.4,286046997.7,P
1540425815.3,286046995.9,P
1540425835.1,286046993.8,P
1540425855.8,286046994.6,Y
1540425875.7,286046995.5,P
1540425895.5,286046995.1,P
1540425915.4,286046997.8,P
1540425935.2,286046999.6,N
1540425955.0,286046999.5,N
1540425955.9,286046999.5,N
1540425975.8,286046997.0,N
1540425995.6,286046997.6,N
1540426015.4,286046997.7,N
1540426035.3,286046997.7,N
1540426055.1,286046997.1,N
1540426075.9,286046995.0,Y
1540426095.7,286046998.3,P
1540426115.5,286046997.0,P
1540426135.4,286046997.0,P
1540426155.2,286046998.4,Y
1540426175.0,286047002.2,P
1540426175.9,286047002.2,N
1540426195.8,286047001.9,N
1540426215.6,286047002.7,N
1540426235.5,286047001.6,N
1540426255.3,286047001.3,N
1540426275.1,286047002.4,N
1540426295.9,286046999.9,N
1540426315.7,286046998.9,N
1540426335.5,286046999.6,N
1540426355.4,286046999.8,N
1540426375.2,286047002.3,N
1540426395.0,286047000.1,N
1540426395.9,286047000.1,N
1540426415.8,286047000.3,N
1540426435.6,286047001.0,N
1540426455.5,286047000.9,N
1540426475.3,286047000.2,N
1540426495.1,286047001.2,N
1540426515.9,286047000.2,N
1540426535.7,286047000.0,N
1540426555.5,286047002.6,N
1540426575.4,286047000.1,N
1540426595.2,286047000.3,N
1540426615.1,286047000.8,N
1540426616.0,286047000.8,N
1540426635.8,286047000.3,N
1540426655.6,286047000.7,N
1540426675.5,286047000.5,N
1540426695.3,286047001.0,N
1540426715.1,286047000.1,N
1540426735.9,286046998.6,N
1540426755.7,286046998.3,N
1540426775.6,286046998.9,N
1540426795.4,286046999.0,N
1540426815.2,286046997.8,N
1540426835.1,286046995.8,Y
1540426836.0,286046995.8,P
1540426855.8,286046997.3,N
1540426875.6,286046999.2,N
1540426895.5,286046998.2,N
1540426915.3,286046999.3,N
1540426935.2,286046998.9,N
1540426955.9,286046999.2,N
1540426975.7,286046996.5,N
1540426995.6,286046996.8,N
1540427015.4,286046996.8,N
1540427035.2,286046996.6,N
1540427055.1,286046997.0,N
1540427056.0,286046997.0,N
1540427075.8,286046997.3,N
1540427095.7,286046997.9,N
1540427115.5,286046999.1,N
1540427135.3,286046999.0,N
1540427155.2,286046998.8,N
1540427175.9,286047001.0,N
1540427195.7,286047000.5,N
1540427215.6,286046999.3,N
1540427235.4,286046996.9,N
1540427255.2,286046998.1,N
1540427275.1,286046999.3,N
1540427276.0,286046999.3,N
1540427295.8,286046997.3,N
1540427315.7,286046997.8,N
1540427335.5,286046997.3,N
1540427355.3,286046998.0,N
1540427375.2,286046996.0,Y
1540427395.0,286046999.2,P
1540427395.9,286046999.2,N
1540427415.7,286047000.7,N
1540427435.6,286047000.2,N
1540427455.4,286047000.2,N
1540427475.3,286046999.9,N
1540427495.1,286047002.6,Y
1540427515.8,286047000.4,P
1540427535.7,286047001.6,P
1540427555.5,286047001.0,N
1540427575.4,286047000.4,N
1540427595.2,286047000.9,N
1540427615.0,286047001.2,N
1540427615.9,286047001.2,N
1540427635.8,286046999.6,N
1540427655.6,286046997.9,Y
1540427675.4,286046995.4,P
1540427695.3,286046997.9,N
1540427715.1,286046995.3,N
1540427735.9,286046997.5,N
1540427755.7,286046997.5,N
1540427775.5,286046997.1,N
1540427795.4,286046996.6,N
1540427815.2,286046999.3,N
1540427835.0,286047000.6,N
1540427835.9,286047000.6,N
1540427855.8,286046999.8,N
1540427875.6,286047000.9,N
1540427895.5,286047000.5,N
1540427915.3,286047002.2,N
1540427935.1,286047001.4,N
1540427955.9,286047001.9,N
1540427975.7,286047000.3,N
1540427995.5,286047000.3,N
1540428015.4,286047001.2,N
1540428035.2,286046998.1,N
1540428055.1,286046998.5,N
1540428056.0,286046998.5,N
1540428075.8,286046999.0,N
1540428095.6,286046998.7,N
1540428115.5,286047001.0,N
1540428135.3,286046998.7,N
1540428155.1,286046998.4,N
1540428175.9,286046998.2,N
1540428195.7,286046998.5,N
1540428215.5,286046998.6,N
1540428235.4,286046999.8,N
1540428255.2,286047000.1,N
1540428275.1,286046999.9,N
1540428276.0,286046999.9,N
1540428295.8,286046998.1,N
1540428315.6,286046999.1,N
1540428335.5,286046996.9,N
1540428355.3,286046996.9,N
1540428375.1,286046999.5,N
1540428395.9,286046999.5,N
1540428415.7,286046999.1,N
1540428435.6,286046998.6,N
1540428455.4,286046997.5,N
1540428475.2,286046998.0,N
1540428495.1,286046997.8,N
1540428496.0,286046997.8,N
1540428515.8,286047000.9,N
1540428535.6,286046998.5,N
1540428555.5,286046996.9,N
1540428575.3,286046997.9,N
1540428595.2,286046996.9,N
1540428615.9,286046996.6,Y
1540428635.7,286046997.0,P
1540428655.6,286046997.7,N
1540428675.4,286046996.9,P
1540428695.2,286046998.6,N
1540428715.1,286046998.4,N
1540428716.0,286046998.4,N
1540428735.8,286046996.6,Y
1540428755.7,286047001.1,P
1540428775.5,286047000.3,N
1540428795.3,286046999.9,N
1540428815.2,286047000.3,N
1540428835.0,286047001.0,N
1540428835.9,286047001.0,N
1540428855.8,286046996.5,Y
1540428875.6,286046998.4,P
1540428925.5,286047000.7,E
1540428935.4,286046998.2,N
1540428955.2,286047000.9,P
1540428975.1,286046999.2,N
1540428976.0,286046999.2,N
1540428995.8,286046997.1,Y
1540429015.6,286046999.6,P
1540429035.5,286046996.6,P
1540429055.3,286046996.9,N
1540429075.2,286047001.1,N
1540429095.9,286046999.7,N
1540429115.7,286047001.9,N
1540429135.6,286047002.2,N
1540429155.4,286047002.0,N
1540429175.2,286047003.9,N
1540429195.1,286047003.7,N
1540429196.0,286047003.7,N
